SCP
2 2 2 3 3 3 2 2 2 1 1 1 1 1 1 1 1 1 1 1 0 0 0 1 1 1 1 0 0 1 1 1 1 1 2 2 2 1
2 2 2 3 3 3 3 2 2 2 2 2 2 2 1 1 1 1 1 1 0 0 0 0 1 1 0 0 0 0 0 1 1 1 1 1 1 1
2 2 2 2 3 3 3 3 3 2 2 2 3 2 2 1 1 1 1 1 1 0 0 0 0 0 0 0 0 0 0 0 0 0 0 1 1 1
2 2 2 2 2 3 3 3 3 2 2 3 3 3 2 1 1 1 1 1 1 0 0 0 0 0 0 0 0 0 0 0 0 0 0 0 0 1
1 1 2 2 2 2 3 3 2 2 2 2 3 3 2 1 1 1 1 1 1 0 0 0 0 0 0 0 0 0 0 0 0 0 0 0 0 0
1 1 1 2 2 2 2 3 2 2 2 2 2 2 2 2 1 1 1 1 1 0 0 0 0 0 0 0 0 0 0 0 0 0 0 0 0 0
0 0 1 1 1 1 2 2 2 2 2 2 2 2 2 2 1 1 1 1 1 1 1 0 0 0 0 0 0 0 0 0 0 0 0 0 0 0
0 0 0 0 0 1 1 1 1 2 2 2 2 2 2 2 2 2 1 1 1 1 1 1 0 0 0 0 0 0 0 0 0 0 0 0 0 0
1 0 0 0 0 0 0 1 1 1 1 2 2 2 2 3 2 2 1 1 1 1 1 0 0 0 0 0 0 0 0 0 0 0 0 0 0 0
1 1 0 0 0 0 1 1 1 0 1 1 1 2 2 2 2 2 2 2 2 1 1 0 0 0 0 0 0 0 0 0 0 0 0 0 0 0
1 0 0 0 0 0 1 1 1 1 0 0 1 1 1 1 2 2 2 2 2 1 1 0 0 0 0 0 0 0 0 0 0 0 0 0 0 0
0 0 0 0 0 0 1 1 1 1 1 1 1 1 1 1 1 2 2 1 1 1 1 0 0 0 0 0 0 0 0 0 0 0 0 0 0 0
0 1 0 0 0 0 0 1 1 1 1 1 2 2 2 1 1 1 2 2 1 1 1 0 0 0 0 0 0 0 0 0 0 0 0 0 0 0
0 0 0 0 0 0 0 0 0 1 1 1 2 2 2 2 2 1 1 2 1 1 1 0 0 0 0 0 0 0 0 0 0 0 0 0 0 0
0 0 0 0 0 0 0 0 0 0 1 1 1 2 2 2 2 1 1 1 1 1 1 0 0 0 0 0 0 0 0 0 0 0 0 0 0 0
0 0 0 0 0 0 0 0 0 0 0 1 1 1 2 2 1 1 1 1 0 0 0 0 0 0 0 0 0 0 0 0 0 0 0 0 0 0
0 0 0 0 0 0 0 0 0 0 0 0 1 1 1 1 1 1 1 1 0 0 0 0 0 0 0 0 0 0 0 0 0 0 0 0 0 0
0 0 0 0 0 0 0 0 0 0 0 0 0 1 1 1 1 1 1 1 0 0 0 0 0 0 0 0 0 0 0 0 0 0 0 0 0 0
0 0 0 0 0 0 0 0 0 0 0 0 0 1 1 1 0 0 1 1 0 0 0 0 0 0 0 0 0 0 0 0 0 0 0 0 0 0
0 0 0 0 0 0 0 0 1 1 0 0 0 0 1 0 0 0 0 1 1 0 0 0 0 0 0 0 0 0 0 0 0 0 0 0 0 0
0 0 0 0 0 0 1 1 1 1 0 0 0 0 0 0 0 0 0 0 0 0 0 0 0 0 0 0 0 0 0 0 0 0 0 0 0 0
0 0 0 0 1 1 1 1 1 0 0 0 0 0 0 0 0 0 0 0 0 0 0 0 0 0 0 0 0 0 0 0 0 0 0 0 0 0
0 0 0 0 0 1 0 0 0 0 0 0 0 0 0 0 0 0 0 0 0 0 0 0 0 0 0 0 0 0 0 0 0 0 0 0 0 0
Wind_Speed
8 9 8 7 7 7 7 7 8 8 7 6 5 5 4 3 3 3 2 3 3 4 5 6 7 8 9 10 11 12 13 13 14 16 17 18 19 20
7 8 8 8 7 7 7 7 8 8 8 4 4 5 4 3 4 3 2 3 3 4 4 5 6 7 9 9 10 10 11 12 13 14 14 15 16 17
9 10 10 10 7 7 7 8 8 8 9 7 4 4 5 5 4 4 4 4 3 4 3 3 4 5 7 8 8 9 10 11 12 13 13 14 14 15
10 10 11 9 10 9 7 9 8 8 9 9 6 5 7 6 5 5 4 3 1 5 3 1 2 3 4 5 6 7 8 9 9 10 11 12 13 13
10 11 11 11 11 9 9 9 8 8 8 9 8 5 5 6 6 5 4 3 2 4 5 3 2 1 2 3 3 4 5 6 7 8 8 8 9 9
10 10 11 11 11 11 10 10 9 9 8 9 8 7 6 7 6 6 5 4 3 2 2 3 4 4 3 3 3 3 3 4 5 6 7 7 7 7
11 11 11 9 7 8 8 9 9 9 9 9 9 7 7 7 7 7 5 4 3 2 2 2 2 2 3 4 4 4 4 5 5 6 6 7 8 8
11 11 10 10 10 10 11 10 10 10 10 10 9 9 9 9 7 7 6 5 4 4 3 2 2 3 3 4 6 6 6 7 8 8 9 9 9 10
12 11 11 10 10 11 12 15 14 14 13 12 12 10 10 10 9 9 8 7 4 5 4 3 3 4 4 6 8 7 8 9 10 10 11 11 11 11
13 12 12 11 10 9 10 11 13 14 14 14 13 11 10 8 9 9 7 6 4 4 4 3 3 4 5 5 8 8 9 10 11 12 12 13 13 13
13 13 12 12 9 8 11 12 12 11 11 11 10 8 5 5 6 6 8 8 6 5 4 4 5 4 4 4 6 9 9 10 11 12 13 14 15 14
11 11 11 12 8 9 11 12 12 11 10 10 10 9 9 9 10 10 9 9 7 5 6 6 7 6 4 3 4 5 7 10 11 11 12 11 10 8
9 9 8 12 11 10 11 11 10 8 9 9 9 9 9 9 11 11 9 8 8 6 9 8 8 6 6 6 4 4 5 6 7 8 9 8 6 5
8 7 4 9 10 10 10 9 7 7 8 8 8 8 9 9 10 10 10 8 5 6 9 10 7 7 8 8 6 6 5 6 6 7 7 8 8 9
6 3 1 6 8 10 12 10 9 9 8 8 8 8 8 8 8 7 7 6 6 6 7 8 7 8 7 8 8 8 7 6 6 7 7 7 7 7
9 7 8 7 8 7 7 10 10 9 8 8 8 7 6 7 8 8 9 9 7 6 7 7 7 8 6 8 9 9 8 7 8 7 7 7 6 6
5 6 6 6 7 7 7 8 8 8 8 8 7 7 7 7 8 8 8 9 8 9 8 7 7 5 6 7 9 9 8 8 8 8 7 7 6 6
4 5 5 6 6 6 6 7 7 8 8 8 7 7 8 8 8 8 8 9 9 9 9 9 9 9 7 4 3 8 8 8 8 8 7 7 7 6
5 5 5 5 5 5 5 6 6 7 7 7 7 8 8 8 8 9 9 9 9 9 10 10 10 10 11 9 5 2 7 8 8 8 7 6 7 7
5 4 4 4 4 4 4 5 5 6 6 6 7 7 8 8 8 9 9 10 10 10 10 9 9 9 9 9 9 7 6 8 8 8 7 6 6 7
3 3 4 4 3 4 4 4 5 5 6 6 7 7 7 8 8 8 8 11 11 10 10 9 6 5 6 7 9 8 7 4 3 5 8 8 8 8
1 2 2 2 2 3 3 4 5 5 6 6 7 7 7 8 9 10 10 10 10 10 10 9 9 8 8 9 10 11 9 8 5 6 5 2 4 6
0 1 1 2 2 3 4 5 6 6 5 6 7 8 8 9 9 9 10 10 10 11 11 10 9 8 8 8 9 10 13 12 9 9 6 5 6 7
Wind_Direction
242 236 238 243 242 244 244 245 249 250 237 199 206 186 193 189 156 226 228 147 190 227 239 241 241 239 235 233 232 231 229 226 224 222 219 219 219 219
246 247 240 243 239 237 237 239 243 252 258 230 197 193 192 200 185 222 216 166 201 222 235 239 239 237 235 233 230 229 227 222 219 218 216 215 215 216
244 242 238 242 242 239 235 235 236 239 247 247 221 189 196 227 208 218 219 228 187 167 198 234 240 237 233 231 230 228 225 222 219 217 215 212 210 210
247 246 243 238 232 238 238 236 234 235 241 244 233 212 209 215 219 222 224 220 204 118 134 181 233 231 227 227 226 225 224 221 217 212 208 206 206 207
249 247 245 241 237 235 233 235 231 228 233 241 236 225 217 212 210 213 212 199 201 144 142 140 122 150 185 201 205 207 210 209 207 203 198 197 198 200
247 249 250 245 240 238 236 235 237 232 226 234 233 222 217 208 211 212 204 195 187 162 95 89 103 108 110 124 141 156 169 176 182 184 179 175 172 172
242 243 245 248 262 257 254 243 236 233 229 227 226 220 216 205 209 212 203 190 174 181 157 131 133 118 110 112 112 110 122 128 131 138 142 144 145 140
239 240 242 231 229 231 248 258 260 250 243 237 230 223 219 216 211 209 198 193 195 169 160 114 83 79 65 66 67 87 104 111 114 116 117 116 117 115
241 239 242 237 221 232 225 226 237 243 249 253 249 238 223 216 211 206 202 203 195 159 156 119 92 79 62 66 70 86 98 106 110 112 111 109 107 108
240 238 241 247 240 239 244 238 235 229 226 231 243 246 239 227 216 213 194 181 159 150 156 133 119 95 78 72 67 83 97 101 107 112 113 110 107 104
239 237 237 240 231 217 241 246 244 239 228 231 243 245 250 229 216 201 183 181 176 166 163 143 135 117 96 85 79 79 89 98 103 108 111 113 112 108
233 234 230 235 228 203 232 241 240 236 230 211 211 215 215 207 203 210 199 192 177 168 166 155 151 147 124 109 114 114 100 92 96 99 107 116 126 124
235 231 225 196 208 210 230 246 249 251 238 226 214 209 206 203 202 205 209 202 189 179 165 168 164 165 141 138 133 132 131 131 124 112 103 100 94 105
247 245 221 172 191 207 223 238 237 236 239 229 216 208 203 201 198 197 198 203 202 179 166 173 165 164 148 145 144 147 141 140 139 135 130 120 95 80
251 258 210 180 200 213 223 223 217 222 226 224 218 212 204 197 186 179 173 168 159 160 161 172 163 157 158 152 149 153 150 149 150 143 143 147 144 140
236 212 204 211 229 247 218 206 216 219 216 220 217 210 196 182 179 173 166 161 154 148 150 160 159 158 153 146 148 151 155 155 158 152 147 145 148 145
227 221 219 214 215 217 218 213 209 205 208 216 211 196 187 182 179 173 169 164 159 153 148 144 140 137 135 146 151 153 153 152 151 147 153 147 148 151
239 231 227 228 227 220 214 210 208 205 203 204 198 189 185 178 173 171 171 165 158 155 151 148 144 137 130 101 121 154 154 151 148 158 166 154 149 148
232 240 236 238 237 226 217 209 204 201 196 196 192 185 180 172 168 168 166 161 158 155 153 155 159 160 158 151 151 188 158 150 155 166 173 164 153 148
238 244 242 234 232 222 207 197 194 187 182 185 186 179 173 168 166 166 164 161 156 153 154 162 170 174 169 154 148 154 165 162 165 166 165 152 124 107
222 232 240 237 226 210 194 183 176 173 172 173 171 166 163 161 161 162 158 154 154 156 160 160 155 148 134 135 140 146 149 115 105 158 165 163 162 172
234 235 237 235 206 184 179 172 162 155 159 160 154 154 155 155 155 155 156 158 159 158 153 144 150 155 156 158 151 149 151 151 118 79 79 84 182 191
278 246 222 167 163 160 159 155 148 144 146 150 150 152 152 150 152 154 159 160 155 151 148 150 155 162 161 158 155 154 156 164 169 175 168 105 94 94